US 1 @ Appoquinimink River, Odessa DE USA current weather conditions

sailwx.info

Wind at 11 knots gusting 15

Air temperature 8.8° C
Dewpoint -1.6° C

Last reported at 2020-Jan-26 20:00 UTC.
Time now 2020-Jan-26 20:42 UTC

Location: N 39°26' W 075°40'.
View on Google Maps.

See reports from other nearby stations

  
Tides and Currents Weather Stations Pressure Air Temp Water Temp Dewpoint Dewpoint Depression Visibility Wind Speed Wind Dir Waves Ship Positions
date/time (UTC)wind fromknots sea level pressurealtimeterstation pressurevisibilityair tempwater tempwave heightnotes
2020-Jan-26 20:00 8.8
2020-Jan-26 19:50 345 10 gusting 13 8.6
2020-Jan-26 19:45 345 9 gusting 14 8.6
2020-Jan-26 19:40 355 10 gusting 14 8.6
2020-Jan-26 19:35 8.6
2020-Jan-26 19:30 005 8 gusting 17 8.6
2020-Jan-26 19:25 8.8
2020-Jan-26 19:20 355 14 gusting 19 9.1
2020-Jan-26 19:15 340 14 gusting 18 9.1
2020-Jan-26 19:10 335 12 gusting 17 9.2
2020-Jan-26 19:05 340 13 gusting 18 8.6
2020-Jan-26 19:00 330 11 gusting 20 8.6
2020-Jan-26 18:55 340 13 gusting 21 8.8
2020-Jan-26 18:50 330 15 gusting 21 9.7
2020-Jan-26 18:45 350 16 gusting 21 9.7
2020-Jan-26 18:40 355 12 gusting 21 9.7
2020-Jan-26 18:35 340 12 gusting 24 10.1
2020-Jan-26 18:30 335 17 gusting 24 10.2
2020-Jan-26 18:25 335 16 gusting 23 10.0
2020-Jan-26 18:20 320 16 gusting 23 10.2
2020-Jan-26 18:15 330 18 gusting 27 10.2
2020-Jan-26 18:10 335 21 gusting 27 10.1
2020-Jan-26 18:05 320 16 gusting 26 10.4
2020-Jan-26 18:00 350 12 gusting 22 10.4
2020-Jan-26 17:55 350 11 gusting 23 10.7
2020-Jan-26 17:50 350 14 gusting 23 10.3
2020-Jan-26 17:45 10.0
2020-Jan-26 17:40 335 17 gusting 22 9.2
2020-Jan-26 17:35 10.0
2020-Jan-26 17:30 340 16 gusting 26 9.7
2020-Jan-26 17:25 355 14 gusting 22 9.6
2020-Jan-26 17:20 345 16 gusting 24 9.1
2020-Jan-26 17:15 330 13 gusting 25 8.3
2020-Jan-26 17:10 005 18 gusting 30 8.5
2020-Jan-26 17:05 010 19 gusting 30 8.1
2020-Jan-26 17:00 335 15 gusting 23 8.2
2020-Jan-26 16:55 325 12 gusting 20 8.3
2020-Jan-26 16:50 345 15 gusting 22 8.1
2020-Jan-26 16:45 335 14 gusting 23 8.1
2020-Jan-26 16:40 355 13 gusting 21 8.3
2020-Jan-26 16:35 355 14 gusting 20 8.3
2020-Jan-26 16:30 8.6
2020-Jan-26 16:25 340 16 gusting 23 8.2
2020-Jan-26 16:20 335 14 gusting 24 9.1
2020-Jan-26 16:15 355 17 gusting 23 9.1
2020-Jan-26 16:10 355 15 gusting 21 9.1
2020-Jan-26 16:05 355 15 gusting 25 9.1
2020-Jan-26 16:00 350 14 gusting 25 8.7
2020-Jan-26 15:55 325 15 gusting 21 9.1
2020-Jan-26 15:50 345 14 gusting 20 9.1
2020-Jan-26 15:45 355 12 gusting 22 8.8
2020-Jan-26 15:40 335 17 gusting 22 8.6
2020-Jan-26 15:35 325 16 gusting 26 8.3
2020-Jan-26 15:30 335 19 gusting 26 8.5
2020-Jan-26 15:25 345 15 gusting 25 8.7
2020-Jan-26 15:20 345 18 gusting 25 8.5
2020-Jan-26 15:15 345 16 gusting 21 8.6
2020-Jan-26 15:10 335 10 gusting 18 8.6
2020-Jan-26 15:05 315 11 gusting 20 8.3
2020-Jan-26 15:00 320 14 gusting 20 8.1
2020-Jan-26 14:55 300 10 gusting 14 7.3
2020-Jan-26 14:50 325 8 gusting 14 7.5
2020-Jan-26 14:45 305 10 gusting 14 6.8
2020-Jan-26 14:40 325 10 gusting 14 6.2
2020-Jan-26 14:35 300 11 gusting 15 6.2
2020-Jan-26 14:30 315 12 gusting 15 6.2
2020-Jan-26 14:25 315 10 gusting 18 6.2
2020-Jan-26 14:20 320 11 gusting 18 6.5
2020-Jan-26 14:15 310 12 gusting 17 6.6
2020-Jan-26 14:10 315 11 gusting 13 6.8
2020-Jan-26 14:05 315 11 gusting 13 6.6
2020-Jan-26 14:00 300 10 gusting 13 6.0
2020-Jan-26 13:55 315 9 gusting 14 5.2
2020-Jan-26 13:50 315 10 gusting 14 4.6
2020-Jan-26 13:45 300 10 gusting 12 4.6
2020-Jan-26 13:40 310 8 gusting 12 4.6
2020-Jan-26 13:35 305 9 gusting 12 4.3
2020-Jan-26 13:30 325 7 gusting 10 4.2
2020-Jan-26 13:25 315 8 gusting 13 4.2
2020-Jan-26 13:20 310 10 gusting 13 4.1
2020-Jan-26 13:15 300 8 gusting 12 4.1
2020-Jan-26 13:10 310 8 gusting 12 4.0
2020-Jan-26 13:05 305 8 gusting 12 4.0
2020-Jan-26 13:00 305 8 gusting 10 3.9
2020-Jan-26 12:55 315 7 gusting 10 3.9
2020-Jan-26 12:50 310 7 gusting 10 3.6
2020-Jan-26 12:45 310 7 gusting 10 3.6
2020-Jan-26 12:40 320 8 gusting 11 3.6
2020-Jan-26 12:35 320 8 gusting 11 3.2
2020-Jan-26 12:30 325 8 gusting 9 3.2
2020-Jan-26 12:25 325 8 gusting 10 3.4
2020-Jan-26 12:20 320 8 gusting 10 3.4
2020-Jan-26 12:15 320 8 gusting 10 3.4
2020-Jan-26 12:10 305 7 gusting 11 3.4
2020-Jan-26 12:05 310 8 gusting 11 3.4
2020-Jan-26 12:00 315 8 gusting 10 3.1
2020-Jan-26 11:55 315 8 gusting 11 3.1
2020-Jan-26 11:50 320 9 gusting 11 3.1
2020-Jan-26 11:45 310 9 gusting 11 3.2
2020-Jan-26 11:40 295 7 gusting 10 3.1
2020-Jan-26 11:35 310 8 gusting 11 2.9
2020-Jan-26 11:30 325 8 gusting 11 2.9
2020-Jan-26 11:25 325 9 gusting 11 2.6
2020-Jan-26 11:20 335 9 gusting 11 2.4
2020-Jan-26 11:15 320 8 gusting 12 2.5
2020-Jan-26 11:10 305 8 gusting 12 2.1
2020-Jan-26 11:05 315 8 gusting 10 2.0
2020-Jan-26 11:00 325 7 gusting 9 2.0
2020-Jan-26 10:55 305 6 gusting 8 2.0
2020-Jan-26 10:50 305 6 gusting 9 2.0
2020-Jan-26 10:45 305 7 gusting 10 2.2
2020-Jan-26 10:40 310 8 gusting 10 2.2
2020-Jan-26 10:35 300 7 gusting 9 2.2
2020-Jan-26 10:30 305 7 gusting 8 2.1
2020-Jan-26 10:25 300 7 gusting 8 2.5
2020-Jan-26 10:20 295 7 gusting 9 2.6
2020-Jan-26 10:15 300 7 gusting 10 2.7
2020-Jan-26 10:10 300 8 gusting 11 2.7
2020-Jan-26 10:05 305 8 gusting 12 2.5
2020-Jan-26 10:00 310 9 gusting 12 2.1
2020-Jan-26 09:55 320 9 gusting 11 2.1
2020-Jan-26 09:50 320 10 gusting 11 2.0
2020-Jan-26 09:45 320 9 gusting 11 1.9
2020-Jan-26 09:40 320 9 gusting 11 1.9
2020-Jan-26 09:35 315 9 gusting 11 2.1
2020-Jan-26 09:30 320 9 gusting 11 2.4
2020-Jan-26 09:25 305 8 gusting 11 2.1
2020-Jan-26 09:20 310 9 gusting 11 2.1
2020-Jan-26 09:15 320 9 gusting 11 2.1
2020-Jan-26 09:10 320 8 gusting 10 1.7
2020-Jan-26 09:05 315 8 gusting 9 1.9
2020-Jan-26 09:00 315 7 gusting 10 2.1
2020-Jan-26 08:55 315 7 gusting 10 2.1
2020-Jan-26 08:50 315 7 gusting 10 2.5
2020-Jan-26 08:45 320 8 gusting 9 2.4
2020-Jan-26 08:40 320 7 gusting 9 2.2
2020-Jan-26 08:35 315 7 gusting 9 2.5
2020-Jan-26 08:30 310 7 gusting 9 2.6
2020-Jan-26 08:25 320 8 gusting 9 2.6
2020-Jan-26 08:20 325 7 gusting 9 3.0
2020-Jan-26 08:15 315 7 gusting 9 3.1
2020-Jan-26 08:10 320 6 gusting 10 3.2
2020-Jan-26 08:05 315 8 gusting 10 3.1
2020-Jan-26 08:00 320 8 gusting 9 3.2
2020-Jan-26 07:55 325 8 gusting 9 3.4
2020-Jan-26 07:50 315 8 gusting 9 3.4
2020-Jan-26 07:45 315 7 gusting 11 3.6
2020-Jan-26 07:40 315 8 gusting 11 3.6
2020-Jan-26 07:35 315 8 gusting 11 3.5
2020-Jan-26 07:30 330 9 gusting 11 3.5
2020-Jan-26 07:25 335 9 gusting 11 3.6
2020-Jan-26 07:20 330 9 gusting 11 3.7
2020-Jan-26 07:15 325 9 gusting 11 3.9
2020-Jan-26 07:10 325 8 gusting 10 3.7
2020-Jan-26 07:05 330 9 gusting 10 3.7
2020-Jan-26 07:00 330 8 gusting 10 3.7
2020-Jan-26 06:55 335 8 gusting 11 3.9
2020-Jan-26 06:50 330 8 gusting 11 3.9
2020-Jan-26 06:45 340 8 gusting 11 4.0
2020-Jan-26 06:40 330 9 gusting 11 3.7
2020-Jan-26 06:35 335 9 gusting 11 3.7
2020-Jan-26 06:30 335 9 gusting 11 3.6
2020-Jan-26 06:25 330 10 gusting 11 3.2
2020-Jan-26 06:20 335 9 gusting 11 3.4
2020-Jan-26 06:15 330 9 gusting 11 3.6
2020-Jan-26 06:10 330 8 gusting 11 3.5
2020-Jan-26 06:05 335 8 gusting 9 3.4
2020-Jan-26 06:00 325 7 gusting 9 3.5
2020-Jan-26 05:55 310 8 gusting 10 3.6
2020-Jan-26 05:50 325 8 gusting 9 3.6
2020-Jan-26 05:45 330 7 gusting 9 3.6
2020-Jan-26 05:40 330 7 gusting 8 3.6
2020-Jan-26 05:35 330 7 gusting 9 3.7
2020-Jan-26 05:30 340 7 gusting 9 3.7
2020-Jan-26 05:25 330 7 gusting 9 3.7
2020-Jan-26 05:20 320 8 gusting 9 3.9
2020-Jan-26 05:15 330 8 gusting 9 4.0
2020-Jan-26 05:10 335 8 gusting 10 4.1
2020-Jan-26 05:05 320 9 gusting 10 4.1
2020-Jan-26 05:00 325 8 gusting 11 4.2
2020-Jan-26 04:55 330 9 gusting 11 4.1
2020-Jan-26 04:50 330 8 gusting 11 4.2
2020-Jan-26 04:45 340 9 gusting 10 4.1
2020-Jan-26 04:40 330 9 gusting 11 3.9
2020-Jan-26 04:35 315 8 gusting 11 4.0
2020-Jan-26 04:30 325 9 gusting 10 3.9
2020-Jan-26 04:25 325 9 gusting 10 3.7
2020-Jan-26 04:20 325 9 gusting 10 3.7
2020-Jan-26 04:15 320 8 gusting 9 3.7
2020-Jan-26 04:10 320 7 gusting 9 3.7
2020-Jan-26 04:05 305 6 gusting 8 3.9
2020-Jan-26 04:00 320 6 gusting 8 4.0
2020-Jan-26 03:55 325 6 gusting 8 4.1
2020-Jan-26 03:50 315 6 gusting 9 4.1
2020-Jan-26 03:45 315 6 gusting 9 4.1
2020-Jan-26 03:40 305 6 gusting 8 4.1
2020-Jan-26 03:35 315 7 gusting 7 4.6
2020-Jan-26 03:30 325 6 gusting 7 4.6
2020-Jan-26 03:25 320 7 gusting 7 4.5
2020-Jan-26 03:20 325 6 gusting 7 4.5
2020-Jan-26 03:15 330 7 gusting 8 4.1
2020-Jan-26 03:10 325 7 gusting 8 4.0
2020-Jan-26 03:05 330 6 gusting 8 4.0
2020-Jan-26 03:00 330 6 gusting 8 3.9
2020-Jan-26 02:55 320 6 gusting 7 3.7
2020-Jan-26 02:50 330 6 gusting 7 3.9
2020-Jan-26 02:45 305 6 gusting 7 3.7
2020-Jan-26 02:40 305 6 gusting 7 3.7
2020-Jan-26 02:35 325 6 gusting 7 3.9
2020-Jan-26 02:30 3.6
2020-Jan-26 02:25 330 5 gusting 6 3.6
2020-Jan-26 02:20 300 6 gusting 7 3.6
2020-Jan-26 02:15 310 6 gusting 7 3.6
2020-Jan-26 02:10 325 6 gusting 7 3.7
2020-Jan-26 02:05 345 6 gusting 7 3.7
2020-Jan-26 02:00 350 5 gusting 6 3.6
2020-Jan-26 01:55 310 5 gusting 6 3.6
2020-Jan-26 01:50 305 6 gusting 7 3.7
2020-Jan-26 01:45 325 6 gusting 6 4.1
2020-Jan-26 01:40 305 5 gusting 6 4.1
2020-Jan-26 01:35 340 5 gusting 6 4.1
2020-Jan-26 01:30 4.2
2020-Jan-26 01:25 330 5 gusting 6 4.5
2020-Jan-26 01:20 315 5 gusting 7 4.5
2020-Jan-26 01:15 280 6 gusting 7 4.6
2020-Jan-26 01:10 345 5 gusting 6 5.1
2020-Jan-26 01:05 320 4 gusting 6 4.6
2020-Jan-26 01:00 270 4 gusting 6 5.2
2020-Jan-26 00:55 260 5 gusting 6 5.6
2020-Jan-26 00:50 250 5 gusting 6 5.3
2020-Jan-26 00:45 290 5 gusting 6 5.2
2020-Jan-26 00:40 305 5 gusting 7 5.6
2020-Jan-26 00:35 310 5 gusting 7 5.5
2020-Jan-26 00:30 325 5 gusting 6 5.6
2020-Jan-26 00:25 305 5 gusting 6 6.0
2020-Jan-26 00:20 335 5 gusting 6 6.3
2020-Jan-26 00:15 005 5 gusting 6 6.6
2020-Jan-26 00:10 220 4 gusting 5 7.0
2020-Jan-26 00:05 085 4 gusting 5 7.1
2020-Jan-26 00:00 085 4 gusting 6 7.2
2020-Jan-25 23:55 085 4 gusting 7 7.6
2020-Jan-25 23:50 010 4 gusting 7 7.6
2020-Jan-25 23:45 015 5 gusting 7 7.7
2020-Jan-25 23:40 025 6 gusting 8 8.0
2020-Jan-25 23:35 015 7 gusting 9 8.0
2020-Jan-25 23:30 020 6 gusting 12 8.0
2020-Jan-25 23:25 010 7 gusting 12 8.1
2020-Jan-25 23:20 020 6 gusting 13 8.1
2020-Jan-25 23:15 020 7 gusting 13 8.2
2020-Jan-25 23:10 025 10 gusting 13 8.2
2020-Jan-25 23:05 020 9 gusting 13 8.3
2020-Jan-25 23:00 015 8 gusting 13 8.5
2020-Jan-25 22:55 015 9 gusting 15 8.5
2020-Jan-25 22:50 015 10 gusting 16 8.6
2020-Jan-25 22:45 020 11 gusting 18 8.6
2020-Jan-25 22:40 020 13 gusting 18 8.6
2020-Jan-25 22:35 005 8 gusting 14 8.7
2020-Jan-25 22:30 9.0
2020-Jan-25 22:25 9.0
2020-Jan-25 22:20 350 10 gusting 14 9.1
2020-Jan-25 22:15 9.1
2020-Jan-25 22:10 005 9 gusting 13 9.3
2020-Jan-25 22:05 010 8 gusting 12 9.3
2020-Jan-25 22:00 350 8 gusting 12 9.2
2020-Jan-25 21:55 350 7 gusting 13 9.3
2020-Jan-25 21:50 340 10 gusting 13 9.3
2020-Jan-25 21:45 355 10 gusting 15 9.3
2020-Jan-25 21:40 350 11 gusting 15 9.3
2020-Jan-25 21:35 355 10 gusting 18 9.5
2020-Jan-25 21:30 005 10 gusting 18 9.5
2020-Jan-25 21:25 9.6
2020-Jan-25 21:20 345 13 gusting 16 9.6
2020-Jan-25 21:15 345 11 gusting 15 9.5
2020-Jan-25 21:10 335 10 gusting 15 9.3
2020-Jan-25 21:05 330 11 gusting 15 9.2
2020-Jan-25 21:00 330 12 gusting 16 9.2
2020-Jan-25 20:55 325 12 gusting 20 9.2
2020-Jan-25 20:50 330 14 gusting 20 9.3
2020-Jan-25 20:45 330 11 gusting 17 9.5
2020-Jan-25 20:40 340 12 gusting 20 9.5
2020-Jan-25 20:35 325 15 gusting 21 9.3
2020-Jan-25 20:30 310 15 gusting 21 9.5
2020-Jan-25 20:25 320 13 gusting 20 9.5
2020-Jan-25 20:20 325 17 gusting 20 9.3
2020-Jan-25 20:15 315 17 gusting 21 9.3
2020-Jan-25 20:10 325 14 gusting 21 9.5
2020-Jan-25 20:05 315 16 gusting 20 9.3
2020-Jan-25 20:00 320 12 gusting 17 9.3
2020-Jan-25 19:55 320 12 gusting 22 9.2
2020-Jan-25 19:50 320 15 gusting 22 9.2
2020-Jan-25 19:45 325 13 gusting 20 9.2
2020-Jan-25 19:40 305 16 gusting 20 9.2
2020-Jan-25 19:35 305 13 gusting 22 9.2
2020-Jan-25 19:30 295 17 gusting 22 9.2
2020-Jan-25 19:25 300 15 gusting 24 9.5
2020-Jan-25 19:20 300 19 gusting 24 9.6
2020-Jan-25 19:15 305 14 gusting 24 9.8
2020-Jan-25 19:10 315 17 gusting 24 10.1
2020-Jan-25 19:05 305 14 gusting 21 10.2
2020-Jan-25 19:00 330 15 gusting 21 10.3
2020-Jan-25 18:55 320 13 gusting 20 10.7
2020-Jan-25 18:50 305 14 gusting 20 10.7
2020-Jan-25 18:45 320 16 gusting 20 10.7
2020-Jan-25 18:40 325 15 gusting 18 10.8
2020-Jan-25 18:35 320 13 gusting 17 11.1
2020-Jan-25 18:30 310 11 gusting 20 10.8
2020-Jan-25 18:25 320 14 gusting 20 10.6
2020-Jan-25 18:20 305 11 gusting 18 10.8
2020-Jan-25 18:15 300 14 gusting 18 11.1
2020-Jan-25 18:10 305 13 gusting 20 11.3
2020-Jan-25 18:05 320 15 gusting 20 11.2
2020-Jan-25 18:00 320 14 gusting 20 11.2
2020-Jan-25 17:55 320 13 gusting 23 11.2
2020-Jan-25 17:50 330 16 gusting 23 11.7
2020-Jan-25 17:45 310 17 gusting 23 12.9
2020-Jan-25 17:40 310 16 gusting 23 13.2
2020-Jan-25 17:35 270 12 gusting 17 13.8
2020-Jan-25 17:30 260 9 gusting 13 14.2
2020-Jan-25 17:25 290 7 gusting 11 13.7
2020-Jan-25 17:20 260 7 gusting 11 13.2
2020-Jan-25 17:15 255 7 gusting 11 12.9
2020-Jan-25 17:10 225 7 gusting 11 12.9
2020-Jan-25 17:05 275 7 gusting 11 12.7
2020-Jan-25 17:00 290 7 gusting 10 12.4
2020-Jan-25 16:55 275 7 gusting 9 12.2
2020-Jan-25 16:50 275 6 gusting 8 12.2
2020-Jan-25 16:45 290 6 gusting 8 11.8
2020-Jan-25 16:40 215 5 gusting 8 11.8
2020-Jan-25 16:35 290 6 gusting 10 11.3
2020-Jan-25 16:30 245 5 gusting 13 11.3
2020-Jan-25 16:25 210 9 gusting 14 11.3
2020-Jan-25 16:20 205 8 gusting 17 11.2
2020-Jan-25 16:15 195 9 gusting 17 11.2
2020-Jan-25 16:10 190 8 gusting 15 10.9
2020-Jan-25 16:05 190 10 gusting 14 10.8
2020-Jan-25 16:00 185 9 gusting 15 10.8
2020-Jan-25 15:55 175 9 gusting 15 10.9
2020-Jan-25 15:50 190 10 gusting 18 11.2
2020-Jan-25 15:45 190 12 gusting 18 11.2
2020-Jan-25 15:40 190 11 gusting 22 11.2
2020-Jan-25 15:35 190 13 gusting 22 11.2
2020-Jan-25 15:30 200 13 gusting 23 11.2
2020-Jan-25 15:25 215 15 gusting 23 11.1
2020-Jan-25 15:20 195 13 gusting 21 11.1
2020-Jan-25 15:15 215 12 gusting 20 11.2
2020-Jan-25 15:10 215 12 gusting 20 10.9
2020-Jan-25 15:05 195 13 gusting 21 10.8
2020-Jan-25 15:00 220 15 gusting 23 10.8
2020-Jan-25 14:55 220 14 gusting 23 10.8
2020-Jan-25 14:50 220 15 gusting 21 10.7
2020-Jan-25 14:45 220 13 gusting 25 10.3
2020-Jan-25 14:40 220 13 gusting 25 10.2
2020-Jan-25 14:35 225 14 gusting 22 10.1
2020-Jan-25 14:30 235 11 gusting 19 9.7
2020-Jan-25 14:25 285 11 gusting 18 9.3
2020-Jan-25 14:20 215 8 gusting 18 9.5
2020-Jan-25 14:15 235 10 gusting 18 9.5
2020-Jan-25 14:10 265 11 gusting 27 9.6
2020-Jan-25 14:05 275 13 gusting 27 9.5
2020-Jan-25 14:00 285 16 gusting 28 10.4
2020-Jan-25 13:55 220 18 gusting 28 10.7
2020-Jan-25 13:50 190 10 gusting 19 10.2
2020-Jan-25 13:45 190 11 gusting 18 10.0
2020-Jan-25 13:40 190 10 gusting 16 9.8
2020-Jan-25 13:35 175 9 gusting 16 9.6
2020-Jan-25 13:30 160 8 gusting 18 9.6
2020-Jan-25 13:25 165 11 gusting 18 9.5
2020-Jan-25 13:20 190 10 gusting 18 9.2
2020-Jan-25 13:15 170 13 gusting 19 9.1
2020-Jan-25 13:10 155 12 gusting 19 9.1
2020-Jan-25 13:05 165 11 gusting 16 9.0
2020-Jan-25 13:00 135 10 gusting 19 8.8
2020-Jan-25 12:55 175 9 gusting 19 8.7
2020-Jan-25 12:50 160 9 gusting 17 8.6
2020-Jan-25 12:45 160 11 gusting 18 8.6
2020-Jan-25 12:40 165 10 gusting 19 8.7
2020-Jan-25 12:35 155 9 gusting 19 8.6
2020-Jan-25 12:30 165 11 gusting 16 8.5
2020-Jan-25 12:25 145 10 gusting 17 8.5
2020-Jan-25 12:20 165 10 gusting 17 8.3
2020-Jan-25 12:15 170 10 gusting 14 8.3
2020-Jan-25 12:10 155 9 gusting 14 8.2
2020-Jan-25 12:05 160 9 gusting 15 8.2
2020-Jan-25 12:00 160 10 gusting 18 8.2
2020-Jan-25 11:55 130 8 gusting 14 8.2
2020-Jan-25 11:50 170 9 gusting 19 8.2
2020-Jan-25 11:45 160 10 gusting 19 8.2
2020-Jan-25 11:40 165 12 gusting 16 8.2
2020-Jan-25 11:35 175 10 gusting 16 8.2
2020-Jan-25 11:30 170 10 gusting 16 8.2
2020-Jan-25 11:25 150 11 gusting 16 8.2
2020-Jan-25 11:20 175 9 gusting 17 8.2
2020-Jan-25 11:15 170 11 gusting 17 8.2
2020-Jan-25 11:10 160 8 gusting 17 8.2
2020-Jan-25 11:05 150 10 gusting 17 8.2
2020-Jan-25 11:00 165 9 gusting 17 8.1
2020-Jan-25 10:55 145 11 gusting 17 8.1
2020-Jan-25 10:50 145 11 gusting 16 8.1
2020-Jan-25 10:45 165 10 gusting 15 8.1
2020-Jan-25 10:40 165 8 gusting 18 8.0
2020-Jan-25 10:35 150 13 gusting 18 8.0
2020-Jan-25 10:30 140 11 gusting 18 8.0
2020-Jan-25 10:25 150 13 gusting 18 8.0
2020-Jan-25 10:20 130 13 gusting 19 7.8
2020-Jan-25 10:15 140 11 gusting 19 7.8
2020-Jan-25 10:10 140 11 gusting 16 7.8
2020-Jan-25 10:05 145 8 gusting 20 7.8
2020-Jan-25 10:00 145 10 gusting 20 7.8
2020-Jan-25 09:55 155 11 gusting 20 7.8
2020-Jan-25 09:50 140 15 gusting 21 7.7
2020-Jan-25 09:45 160 11 gusting 21 7.6
2020-Jan-25 09:40 150 7 gusting 17 7.6
2020-Jan-25 09:35 155 11 gusting 18 7.6
2020-Jan-25 09:30 140 12 gusting 20 7.5
2020-Jan-25 09:25 145 13 gusting 20 7.3
2020-Jan-25 09:20 145 11 gusting 19 7.1
2020-Jan-25 09:15 130 13 gusting 19 7.1
2020-Jan-25 09:10 130 12 gusting 18 7.1
2020-Jan-25 09:05 130 13 gusting 18 7.0
2020-Jan-25 09:00 120 11 gusting 16 7.0
2020-Jan-25 08:55 130 12 gusting 16 6.8
2020-Jan-25 08:50 125 11 gusting 15 6.8
2020-Jan-25 08:45 145 10 gusting 15 6.8
2020-Jan-25 08:40 145 10 gusting 14 6.8
2020-Jan-25 08:35 140 11 gusting 15 6.8
2020-Jan-25 08:30 125 12 gusting 15 6.7
2020-Jan-25 08:25 135 10 gusting 15 6.8
2020-Jan-25 08:20 170 7 gusting 16 6.8
2020-Jan-25 08:15 125 10 gusting 16 6.8
2020-Jan-25 08:10 130 12 gusting 14 6.8
2020-Jan-25 08:05 145 11 gusting 16 7.0
2020-Jan-25 08:00 140 11 gusting 17 7.0
2020-Jan-25 07:55 135 12 gusting 17 7.1
2020-Jan-25 07:50 140 12 gusting 17 7.1
2020-Jan-25 07:45 135 12 gusting 18 7.1
2020-Jan-25 07:40 130 11 gusting 15 7.1
2020-Jan-25 07:35 145 12 gusting 17 7.1
2020-Jan-25 07:30 140 11 gusting 17 7.1
2020-Jan-25 07:25 140 12 gusting 16 7.1
2020-Jan-25 07:20 135 10 gusting 16 7.1
2020-Jan-25 07:15 140 10 gusting 17 7.1
2020-Jan-25 07:10 140 10 gusting 17 7.1
2020-Jan-25 07:05 130 10 gusting 17 7.1
2020-Jan-25 07:00 140 11 gusting 14 7.1
2020-Jan-25 06:55 145 10 gusting 15 7.1
2020-Jan-25 06:50 140 10 gusting 15 7.1
2020-Jan-25 06:45 140 10 gusting 14 7.1
2020-Jan-25 06:40 135 11 gusting 14 7.1
2020-Jan-25 06:35 145 9 gusting 15 7.1
2020-Jan-25 06:30 155 7 gusting 15 7.1
2020-Jan-25 06:25 145 10 gusting 16 7.1
2020-Jan-25 06:20 140 11 gusting 16 7.1
2020-Jan-25 06:15 150 10 gusting 16 7.1
2020-Jan-25 06:10 145 10 gusting 16 7.1
2020-Jan-25 06:05 140 10 gusting 18 7.0
2020-Jan-25 06:00 145 10 gusting 18 7.0
2020-Jan-25 05:55 135 10 gusting 15 6.8
2020-Jan-25 05:50 140 11 gusting 15 6.8
2020-Jan-25 05:45 145 11 gusting 15 6.7
2020-Jan-25 05:40 150 11 gusting 15 6.7
2020-Jan-25 05:35 140 9 gusting 13 6.6
2020-Jan-25 05:30 155 8 gusting 17 6.6
2020-Jan-25 05:25 160 9 gusting 17 6.6
2020-Jan-25 05:20 130 11 gusting 14 6.6
2020-Jan-25 05:15 145 10 gusting 16 6.6
2020-Jan-25 05:10 135 10 gusting 16 6.5
2020-Jan-25 05:05 140 9 gusting 16 6.5
2020-Jan-25 05:00 140 11 gusting 16 6.5
2020-Jan-25 04:55 150 11 gusting 16 6.5
2020-Jan-25 04:50 160 10 gusting 16 6.3
2020-Jan-25 04:45 145 11 gusting 16 6.3
2020-Jan-25 04:40 140 10 gusting 13 6.2
2020-Jan-25 04:35 145 10 gusting 14 6.2
2020-Jan-25 04:30 130 9 gusting 15 6.0
2020-Jan-25 04:25 140 9 gusting 15 5.8
2020-Jan-25 04:20 135 10 gusting 13 5.6
2020-Jan-25 04:15 130 9 gusting 12 5.6
2020-Jan-25 04:10 140 9 gusting 11 5.6
2020-Jan-25 04:05 140 8 gusting 11 5.7
2020-Jan-25 04:00 135 8 gusting 11 5.7
2020-Jan-25 03:55 140 7 gusting 12 6.0
2020-Jan-25 03:50 150 8 gusting 15 6.1
2020-Jan-25 03:45 135 8 gusting 15 6.1
2020-Jan-25 03:40 150 10 gusting 14 6.1
2020-Jan-25 03:35 145 10 gusting 14 6.1
2020-Jan-25 03:30 135 10 gusting 14 6.1
2020-Jan-25 03:25 130 9 gusting 14 6.2
2020-Jan-25 03:20 130 9 gusting 15 6.2
2020-Jan-25 03:15 145 10 gusting 14 6.2
2020-Jan-25 03:10 150 10 gusting 17 6.2
2020-Jan-25 03:05 145 10 gusting 17 6.3
2020-Jan-25 03:00 145 11 gusting 15 6.2
2020-Jan-25 02:55 145 11 gusting 15 6.2
2020-Jan-25 02:50 140 9 gusting 15 6.3
2020-Jan-25 02:45 135 11 gusting 15 6.6
2020-Jan-25 02:40 140 11 gusting 17 6.6
2020-Jan-25 02:35 145 12 gusting 17 6.6
2020-Jan-25 02:30 145 10 gusting 16 6.6
2020-Jan-25 02:25 140 11 gusting 16 6.6
2020-Jan-25 02:20 145 10 gusting 15 6.5
2020-Jan-25 02:15 140 11 gusting 15 6.6
2020-Jan-25 02:10 140 12 gusting 16 6.6
2020-Jan-25 02:05 140 11 gusting 18 6.7
2020-Jan-25 02:00 135 10 gusting 18 6.7
2020-Jan-25 01:55 140 12 gusting 15 6.7
2020-Jan-25 01:50 145 12 gusting 15 6.8
2020-Jan-25 01:45 140 12 gusting 18 6.8
2020-Jan-25 01:40 145 12 gusting 18 7.0
2020-Jan-25 01:35 145 11 gusting 16 7.1
2020-Jan-25 01:30 145 10 gusting 16 7.1
2020-Jan-25 01:25 140 11 gusting 16 7.2
2020-Jan-25 01:20 145 11 gusting 16 7.3
2020-Jan-25 01:15 140 12 gusting 16 7.3
2020-Jan-25 01:10 135 11 gusting 15 7.5
2020-Jan-25 01:05 135 9 gusting 15 7.5
2020-Jan-25 01:00 150 11 gusting 16 7.6
2020-Jan-25 00:55 145 10 gusting 16 7.6
2020-Jan-25 00:50 150 9 gusting 15 7.6
2020-Jan-25 00:45 140 9 gusting 15 7.5
2020-Jan-25 00:40 140 10 gusting 15 7.5
2020-Jan-25 00:35 130 11 gusting 14 7.5
2020-Jan-25 00:30 165 9 gusting 16 7.6
2020-Jan-25 00:25 150 10 gusting 16 7.6
2020-Jan-25 00:20 145 10 gusting 14 7.6
2020-Jan-25 00:15 150 10 gusting 14 7.6
2020-Jan-25 00:10 145 9 gusting 16 7.6
2020-Jan-25 00:05 140 11 gusting 16 7.7
2020-Jan-25 00:00 165 11 gusting 16 7.8
2020-Jan-24 23:55 150 10 gusting 15 7.8
2020-Jan-24 23:50 155 9 gusting 15 8.1
2020-Jan-24 23:45 150 10 gusting 14 8.1
2020-Jan-24 23:40 145 9 gusting 13 8.1
2020-Jan-24 23:35 155 8 gusting 13 8.3
2020-Jan-24 23:30 160 9 gusting 15 8.3
2020-Jan-24 23:25 180 8 gusting 16 8.3
2020-Jan-24 23:20 150 9 gusting 16 8.3
2020-Jan-24 23:15 155 8 gusting 13 8.2
2020-Jan-24 23:10 155 8 gusting 12 8.3
2020-Jan-24 23:05 165 8 gusting 16 8.5
2020-Jan-24 23:00 150 10 gusting 16 8.6
2020-Jan-24 22:55 160 11 gusting 16 8.6
2020-Jan-24 22:50 160 9 gusting 15 8.5
2020-Jan-24 22:45 155 8 gusting 16 8.6
2020-Jan-24 22:40 165 9 gusting 16 8.6
2020-Jan-24 22:35 155 10 gusting 17 8.6
2020-Jan-24 22:30 155 7 gusting 17 8.6
2020-Jan-24 22:25 160 9 gusting 14 8.7
2020-Jan-24 22:20 170 10 gusting 14 8.8
2020-Jan-24 22:15 175 9 gusting 14 9.1
2020-Jan-24 22:10 160 9 gusting 14 9.1
2020-Jan-24 22:05 180 8 gusting 15 9.1
2020-Jan-24 22:00 165 9 gusting 15 9.2
2020-Jan-24 21:55 170 8 gusting 11 9.5
2020-Jan-24 21:50 175 6 gusting 11 9.6
2020-Jan-24 21:45 160 8 gusting 11 9.6
2020-Jan-24 21:40 170 7 gusting 11 9.7
2020-Jan-24 21:35 180 8 gusting 11 10.0
2020-Jan-24 21:30 190 7 gusting 11 10.0
2020-Jan-24 21:25 170 7 gusting 10 10.1
2020-Jan-24 21:20 180 6 gusting 12 10.2
2020-Jan-24 21:15 180 7 gusting 12 10.3
2020-Jan-24 21:10 200 7 gusting 13 10.6
2020-Jan-24 21:05 185 10 gusting 13 10.7
2020-Jan-24 21:00 170 6 gusting 12 10.8
2020-Jan-24 20:55 185 8 gusting 14 10.9
2020-Jan-24 20:50 200 8 gusting 14 11.1
2020-Jan-24 20:45 200 9 gusting 13 11.2
2020-Jan-24 20:40 200 9 gusting 13 11.4
2020-Jan-24 20:35 165 7 gusting 12 11.6
2020-Jan-24 20:30 200 8 gusting 14 11.7
2020-Jan-24 20:25 175 9 gusting 17 11.6
2020-Jan-24 20:20 170 11 gusting 17 11.6
2020-Jan-24 20:15 150 8 gusting 17 11.8
2020-Jan-24 20:10 195 9 gusting 14 11.8
2020-Jan-24 20:05 160 11 gusting 15 12.3
2020-Jan-24 20:00 185 9 gusting 16 12.2